Location: Easthampton
(42.2676°N, 72.6690°W)
Time: 05:45:13
(UTC+00:00)

N. Korean satellite - Pass Details

Date: 04 December 2022
Orbit: 407 x 444 km, 97.3° (Epoch: 28 January)

Event Time Altitude Azimuth Distance (km) Brightness Sun altitude
Rises 09:44:34 0° 20° (NNE) 2,510 10.3 -24.9°
Reaches altitude 10° 09:46:44 10° 28° (NNE) 1,623 9.4 -24.5°
Maximum altitude 09:50:00 38° 98° (E) 723 7.9 -23.9°
Drops below altitude 10° 09:53:12 10° 168° (SSE) 1,585 9.4 -23.3°
Sets 09:55:18 0° 176° (S) 2,441 10.3 -23.0°
